Weather History for Manhattan, KS

Change the Weather History Date:

Wednesday, November 6, 2013

  Actual Average Record
Temperature  
Mean Temperature 35 °F 47 °F  
Max Temperature 43 °F 60 °F 79 °F (2001)
Min Temperature 27 °F 34 °F 24 °F (2003)
Degree Days  
Heating Degree Days 30 18  
Month to date heating degree days 103 103  
Since 1 July heating degree days 455 502  
Cooling Degree Days 0 0  
Month to date cooling degree days 0 0  
Year to date cooling degree days 1513 1361  
Moisture  
Dew Point 33 °F    
Average Humidity 84    
Maximum Humidity 100    
Minimum Humidity 67    
Precipitation  
Precipitation 0.00 in 0.07 in 0.36 in (2000)
Month to date precipitation 0.50 0.46  
Year to date precipitation 28.56 30.39  
Sea Level Pressure  
Sea Level Pressure 30.26 in    
Wind  
Wind Speed 4 mph (WNW)    
Max Wind Speed 14 mph    
Max Gust Speed 25 mph    
Visibility 10 miles    
Events      
T = Trace of Precipitation, MM = Missing Value Source: NWS Daily Summary

Daily Weather History Graph

Daily Weather History Graph

Search for Another Location

Airport:

Trip Planner

Search our weather history database for the weather conditions in past years. The results will help you decide how hot, cold, wet, or windy it might be!

Date:

Astronomy

Nov. 06, 2013 Rise Set
Actual Time 7:00 AM CST 5:20 PM CST
Civil Twilight 6:32 AM CST 5:48 PM CST
Nautical Twilight 6:00 AM CST 6:19 PM CST
Astronomical Twilight 5:28 AM CST 6:51 PM CST
Moon 10:15 AM CST (11/6) 8:26 PM CST (11/6)
Length of Visible Light 11h 16m
Length of Day
10h 19m
Waxing Crescent, 14% of the Moon is Illuminated
Nov 6
Waxing Crescent
Nov 9
First Quarter
Nov 17
Full
Nov 25
Last Quarter
Dec 2
New

Hourly Weather History & Observations

Time (CST) Temp. Windchill Dew Point Humidity Pressure Visibility Wind Dir Wind Speed Gust Speed Precip Events Conditions
12:52 AM 37.9 °F 30.9 °F 36.0 °F 93% 30.11 in 10.0 mi North 10.4 mph 16.1 mph N/A   Overcast
1:13 AM 37.4 °F 32.8 °F 35.6 °F 93% 30.09 in 10.0 mi Variable 5.8 mph - N/A   Overcast
1:52 AM 37.9 °F 32.1 °F 34.0 °F 86% 30.11 in 10.0 mi NNW 8.1 mph 17.3 mph N/A   Overcast
2:52 AM 37.9 °F 32.7 °F 34.0 °F 86% 30.14 in 10.0 mi Variable 6.9 mph 16.1 mph N/A   Overcast
3:52 AM 37.0 °F 32.4 °F 33.1 °F 86% 30.14 in 10.0 mi Variable 5.8 mph - N/A   Overcast
4:52 AM 37.0 °F 33.3 °F 34.0 °F 89% 30.16 in 10.0 mi Variable 4.6 mph - N/A   Overcast
5:52 AM 37.0 °F 31.6 °F 34.0 °F 89% 30.19 in 10.0 mi Variable 6.9 mph 16.1 mph N/A   Overcast
6:52 AM 37.0 °F 32.4 °F 33.1 °F 86% 30.22 in 10.0 mi North 5.8 mph - N/A   Overcast
7:52 AM 37.0 °F 31.0 °F 33.1 °F 86% 30.26 in 10.0 mi NNW 8.1 mph - N/A   Overcast
8:52 AM 37.0 °F 32.4 °F 33.1 °F 86% 30.30 in 10.0 mi NW 5.8 mph - N/A   Overcast
9:52 AM 37.0 °F 32.4 °F 33.1 °F 86% 30.31 in 10.0 mi Variable 5.8 mph - N/A   Overcast
10:52 AM 37.0 °F 33.3 °F 32.0 °F 82% 30.32 in 10.0 mi Variable 4.6 mph - N/A   Overcast
11:52 AM 39.0 °F 34.8 °F 33.1 °F 79% 30.32 in 10.0 mi NW 5.8 mph - N/A   Overcast
12:52 PM 41.0 °F 35.8 °F 33.1 °F 73% 30.31 in 10.0 mi West 8.1 mph - N/A   Overcast
1:04 PM 41.0 °F 39.0 °F 33.8 °F 76% 30.29 in 10.0 mi Variable 3.5 mph - N/A   Overcast
1:52 PM 42.1 °F 40.2 °F 32.0 °F 67% 30.30 in 10.0 mi Variable 3.5 mph - N/A   Overcast
2:52 PM 42.1 °F 38.4 °F 33.1 °F 70% 30.31 in 10.0 mi SW 5.8 mph - N/A   Mostly Cloudy
3:31 PM 41.0 °F 38.0 °F 32.0 °F 70% 30.28 in 10.0 mi WSW 4.6 mph - N/A   Scattered Clouds
3:52 PM 42.1 °F 40.2 °F 33.1 °F 70% 30.30 in 10.0 mi West 3.5 mph - N/A   Clear
4:52 PM 41.0 °F 39.0 °F 33.1 °F 73% 30.30 in 10.0 mi WSW 3.5 mph - N/A   Clear
5:52 PM 35.1 °F - 32.0 °F 89% 30.31 in 10.0 mi Calm Calm - N/A   Clear
6:52 PM 33.1 °F - 32.0 °F 96% 30.33 in 10.0 mi Calm Calm - N/A   Clear
7:52 PM 32.0 °F - 30.9 °F 96% 30.32 in 10.0 mi Calm Calm - N/A   Clear
8:52 PM 30.0 °F - 30.0 °F 100% 30.34 in 10.0 mi Calm Calm - N/A   Clear
9:52 PM 30.0 °F - 28.9 °F 96% 30.36 in 9.0 mi Calm Calm - N/A   Clear
10:52 PM 28.9 °F - 28.9 °F 100% 30.37 in 10.0 mi Calm Calm - N/A   Clear
11:52 PM 27.0 °F - 27.0 °F 100% 30.35 in 10.0 mi Calm Calm - N/A   Clear